Flag for U.S.A. Weather past 2 weeks in Philadelphia, Pennsylvania, U.S.A.

Now
74 °F

Passing clouds.


Feels Like: 74 °F
Forecast: 72 / 83 °F
Wind: 3 mph from West

Location: Philadelphia International Airport

Current Time: Jul 24, 2014 at 12:40:17 AM

Latest Report: Jul 23, 2014 at 11:54 PM


Visibility: 10 mi

Pressure: 29.84 "Hg

Humidity: 82%

Dew point: 68 °F

Location of PhiladelphiaLocation

Historic Weather in Philadelphia — Graph

°F

Philadelphia temperature yesterday

Maximum temperature yesterday: 92 °F (at 4:54 PM)
Minimum temperature yesterday: 72 °F (at 5:54 AM)
Average temperature yesterday: 83 °F

Past Weeks' High & Low Weather Summary

 TemperatureHumidityPressure
High92 °F (Jul 23, 4:54 PM)88% (Jul 15, 2:00 AM)30.23 "Hg (Jul 15, 2:00 AM)
Low65 °F (Jul 18, 5:54 AM)22% (Jul 18, 5:54 PM)29.72 "Hg (Jul 15, 3:54 PM)
Average78 °F60%30.03 "Hg
* Reported Jul 8 10:54 PM — Jul 23 10:54 PM, Philadelphia, Weather by CustomWeather, © 2014

Note: Actual official high and low records may vary slightly from our data, if they occured in-between our weather recording intervals... More about our weather records

Advertising

Philadelphia weather history for previous 24 hours

 ConditionsComfort  
Time TempWeatherWind HumidityBarometerVisibility
10:54 PM
Jul 23
75 °FPartly cloudy.9 mph79%29.84 "Hg10 mi
9:54 PM74 °FLight rain. Mostly cloudy.3 mph85%29.85 "Hg7 mi
8:54 PM76 °FThunderstorms. Cloudy.13 mph77%29.88 "Hg10 mi
7:54 PM85 °FThunderstorms. More clouds than sun.8 mph63%29.82 "Hg10 mi
6:54 PM87 °FPartly sunny.12 mph59%29.81 "Hg10 mi
5:54 PM91 °FScattered clouds.15 mph49%29.80 "Hg10 mi
4:54 PM92 °FScattered clouds.13 mph47%29.82 "Hg10 mi
3:54 PM91 °FPartly sunny.14 mph49%29.85 "Hg10 mi
2:54 PM90 °FScattered clouds.12 mph52%29.86 "Hg10 mi
1:54 PM89 °FPartly sunny.12 mph53%29.89 "Hg10 mi
12:54 PM88 °FScattered clouds.14 mph55%29.90 "Hg10 mi
11:54 AM87 °FScattered clouds.13 mph57%29.93 "Hg10 mi
10:54 AM84 °FScattered clouds.8 mph61%29.95 "Hg10 mi
9:54 AM81 °FScattered clouds.9 mph67%29.98 "Hg10 mi
8:54 AM78 °FScattered clouds.8 mph74%30.00 "Hg10 mi
6:54 AM73 °FScattered clouds.7 mph79%30.00 "Hg10 mi
5:54 AM72 °FPartly cloudy.9 mph78%29.99 "Hg10 mi
12:54 AM73 °FPassing clouds.6 mph69%30.06 "Hg10 mi
Weather by CustomWeather, © 2014

See weather overviewHow to use our weather pages